Puyallup, WA

10:20 AM PDT on April 22, 2018 (GMT -0700)
Pierce County - Thun Field

Weather History for KPLU - December, 2012

Change the Weather History Date:

Friday, December 28, 2012

  Actual Average (KTCM) Record (KTCM)
Temperature  
Mean Temperature 39 °F -  
Max Temperature 46 °F 43 °F 57 °F (1980)
Min Temperature 32 °F 31 °F 6 °F (1990)
Degree Days  
Heating Degree Days 26    
Moisture  
Dew Point 36 °F    
Average Humidity 94    
Maximum Humidity 100    
Minimum Humidity 66    
Precipitation  
Precipitation 0.00 in - - ()
Sea Level Pressure  
Sea Level Pressure 30.13 in    
Wind  
Wind Speed 0 mph (North)    
Max Wind Speed 0 mph    
Max Gust Speed -    
Visibility 10 miles    
Events      
Averages and records for this station are not official NWS values.
T = Trace of Precipitation, MM = Missing Value Source: NWS Daily Summary

Daily Weather History Graph

Daily Weather History Graph

Search for Another Location

Airport or City:

Astronomy

Dec. 28, 2012 Rise Set
Actual Time 7:55 AM PST 4:27 PM PST
Civil Twilight 7:19 AM PST 5:02 PM PST
Nautical Twilight 6:40 AM PST 5:41 PM PST
Astronomical Twilight 6:03 AM PST 6:18 PM PST
Moon 5:13 PM PST (12/28) 7:49 AM PST (12/28)
Length of Visible Light 9h 43m
Length of Day
8h 32m
Full, 100% of the Moon is Illuminated
Dec 28
Full
Jan 4
Last Quarter
Jan 11
New
Jan 18
First Quarter
Jan 26
Full

Hourly Weather History & Observations

Time (PST) Temp. Dew Point Humidity Pressure Visibility Wind Dir Wind Speed Gust Speed Precip Events Conditions
12:15 AM 33.8 °F 33.8 °F 100% 30.15 in 10.0 mi Calm Calm - N/A   Mostly Cloudy
12:35 AM 33.8 °F 33.8 °F 100% 30.15 in 10.0 mi Calm Calm - N/A   Scattered Clouds
12:55 AM 33.8 °F 33.8 °F 100% 30.15 in 10.0 mi Calm Calm - N/A   Mostly Cloudy
1:15 AM 35.6 °F 35.6 °F 100% 30.15 in 10.0 mi Calm Calm - N/A   Overcast
1:35 AM 35.6 °F 35.6 °F 100% 30.15 in 10.0 mi Calm Calm - N/A   Mostly Cloudy
1:55 AM 35.6 °F 35.6 °F 100% 30.15 in 10.0 mi Calm Calm - N/A   Overcast
2:15 AM 35.6 °F 35.6 °F 100% 30.15 in 10.0 mi Calm Calm - N/A   Overcast
2:35 AM 35.6 °F 35.6 °F 100% 30.15 in 10.0 mi Calm Calm - N/A   Mostly Cloudy
2:55 AM 35.6 °F 35.6 °F 100% 30.15 in 10.0 mi Calm Calm - N/A   Partly Cloudy
3:15 AM 35.6 °F 35.6 °F 100% 30.15 in 10.0 mi Calm Calm - N/A   Clear
3:35 AM 35.6 °F 35.6 °F 100% 30.14 in 10.0 mi Calm Calm - N/A   Clear
3:55 AM 35.6 °F 35.6 °F 100% 30.14 in 10.0 mi Calm Calm - N/A   Clear
4:15 AM 35.6 °F 35.6 °F 100% 30.13 in 10.0 mi Calm Calm - N/A   Clear
4:35 AM 35.6 °F 35.6 °F 100% 30.13 in 10.0 mi Calm Calm - N/A   Clear
4:55 AM 35.6 °F 35.6 °F 100% 30.13 in 10.0 mi Calm Calm - N/A   Clear
5:15 AM 35.6 °F 35.6 °F 100% 30.12 in 10.0 mi Calm Calm - N/A   Clear
5:35 AM 33.8 °F 33.8 °F 100% 30.12 in 10.0 mi Calm Calm - N/A   Clear
5:55 AM 32.0 °F 32.0 °F 100% 30.12 in 10.0 mi Calm Calm - N/A   Clear
6:15 AM 33.8 °F 33.8 °F 100% 30.12 in 10.0 mi Calm Calm - N/A   Clear
6:35 AM 33.8 °F 33.8 °F 100% 30.12 in 10.0 mi Calm Calm - N/A   Clear
6:55 AM 32.0 °F 32.0 °F 100% 30.11 in 10.0 mi Calm Calm - N/A   Clear
7:15 AM 33.8 °F 33.8 °F 100% 30.11 in 10.0 mi Calm Calm - N/A   Clear
7:35 AM 33.8 °F 33.8 °F 100% 30.11 in 10.0 mi Calm Calm - N/A   Clear
7:55 AM 33.8 °F 33.8 °F 100% 30.10 in 10.0 mi Calm Calm - N/A   Clear
8:15 AM 33.8 °F 33.8 °F 100% 30.11 in 10.0 mi Calm Calm - N/A   Clear
8:35 AM 33.8 °F 33.8 °F 100% 30.11 in 10.0 mi Calm Calm - N/A   Clear
8:55 AM 35.6 °F 35.6 °F 100% 30.11 in 10.0 mi Calm Calm - N/A   Clear
9:15 AM 35.6 °F 35.6 °F 100% 30.12 in 10.0 mi Calm Calm - N/A   Clear
9:35 AM 37.4 °F 37.4 °F 100% 30.12 in 10.0 mi Calm Calm - N/A   Clear
9:55 AM 39.2 °F 37.4 °F 93% 30.12 in 10.0 mi Calm Calm - N/A   Clear
10:15 AM 41.0 °F 37.4 °F 87% 30.12 in 10.0 mi Calm Calm - N/A   Clear
10:35 AM 41.0 °F 37.4 °F 87% 30.12 in 10.0 mi Calm Calm - N/A   Clear
10:55 AM 41.0 °F 37.4 °F 87% 30.12 in 10.0 mi Calm Calm - N/A   Clear
11:15 AM 42.8 °F 37.4 °F 81% 30.12 in 10.0 mi Calm Calm - N/A   Clear
11:35 AM 42.8 °F 37.4 °F 81% 30.12 in 10.0 mi Calm Calm - N/A   Clear
11:55 AM 44.6 °F 37.4 °F 76% 30.11 in 10.0 mi Calm Calm - N/A   Clear
12:15 PM 44.6 °F 37.4 °F 76% 30.11 in 10.0 mi Calm Calm - N/A   Clear
12:35 PM 44.6 °F 37.4 °F 76% 30.11 in 10.0 mi Calm Calm - N/A   Clear
12:55 PM 44.6 °F 37.4 °F 76% 30.10 in 10.0 mi Calm Calm - N/A   Clear
1:15 PM 46.4 °F 35.6 °F 66% 30.10 in 10.0 mi Calm Calm - N/A   Clear
1:35 PM 46.4 °F 35.6 °F 66% 30.10 in 10.0 mi Calm Calm - N/A   Clear
1:55 PM 46.4 °F 35.6 °F 66% 30.10 in 10.0 mi Calm Calm - N/A   Clear
2:35 PM 46.4 °F 37.4 °F 71% 30.10 in 10.0 mi Calm Calm - N/A   Clear
2:55 PM 46.4 °F 37.4 °F 71% 30.10 in 10.0 mi Calm Calm - N/A   Clear
3:15 PM 44.6 °F 37.4 °F 76% 30.11 in 10.0 mi Calm Calm - N/A   Clear
3:55 PM 44.6 °F 39.2 °F 81% 30.11 in 10.0 mi Calm Calm - N/A   Clear
4:15 PM 42.8 °F 39.2 °F 87% 30.11 in 10.0 mi Calm Calm - N/A   Clear
4:35 PM 41.0 °F 37.4 °F 87% 30.11 in 10.0 mi Calm Calm - N/A   Clear
4:55 PM 39.2 °F 37.4 °F 93% 30.11 in 10.0 mi Calm Calm - N/A   Clear
5:15 PM 39.2 °F 37.4 °F 93% 30.11 in 10.0 mi Calm Calm - N/A   Clear
5:35 PM 39.2 °F 37.4 °F 93% 30.11 in 10.0 mi Calm Calm - N/A   Clear
5:55 PM 39.2 °F 37.4 °F 93% 30.12 in 10.0 mi Calm Calm - N/A   Clear
6:15 PM 39.2 °F 37.4 °F 93% 30.12 in 10.0 mi Calm Calm - N/A   Partly Cloudy
6:35 PM 39.2 °F 39.2 °F 100% 30.12 in 10.0 mi Calm Calm - N/A   Clear
6:55 PM 39.2 °F 37.4 °F 93% 30.13 in 10.0 mi Calm Calm - N/A   Clear
7:15 PM 39.2 °F 39.2 °F 100% 30.13 in 10.0 mi Calm Calm - N/A   Clear
7:35 PM 39.2 °F 39.2 °F 100% 30.13 in 10.0 mi Calm Calm - N/A   Clear
7:55 PM 39.2 °F 39.2 °F 100% 30.13 in 10.0 mi Calm Calm - N/A   Clear
8:15 PM 39.2 °F 39.2 °F 100% 30.13 in 10.0 mi Calm Calm - N/A   Clear
8:35 PM 39.2 °F 39.2 °F 100% 30.13 in 10.0 mi Calm Calm - N/A   Clear
8:55 PM 37.4 °F 37.4 °F 100% 30.13 in 10.0 mi Calm Calm - N/A   Scattered Clouds
9:15 PM 37.4 °F 37.4 °F 100% 30.14 in 10.0 mi Calm Calm - N/A   Mostly Cloudy
9:35 PM 37.4 °F 37.4 °F 100% 30.14 in 10.0 mi Calm Calm - N/A   Mostly Cloudy
9:55 PM 37.4 °F 37.4 °F 100% 30.14 in 10.0 mi Calm Calm - N/A   Mostly Cloudy
10:15 PM 35.6 °F 35.6 °F 100% 30.15 in 10.0 mi Calm Calm - N/A   Scattered Clouds
10:35 PM 37.4 °F 37.4 °F 100% 30.15 in 10.0 mi Calm Calm - N/A   Clear
10:55 PM 37.4 °F 37.4 °F 100% 30.15 in 10.0 mi Calm Calm - N/A   Partly Cloudy
11:15 PM 35.6 °F 35.6 °F 100% 30.15 in 9.0 mi Calm Calm - N/A   Clear
11:35 PM 35.6 °F 35.6 °F 100% 30.15 in 9.0 mi Calm Calm - N/A   Clear
11:55 PM 33.8 °F 33.8 °F 100% 30.15 in 2.0 mi Calm Calm - N/A   Clear